GSAT0201 (GALILEO 5)

Last updated on Oct. 24, 2020, 5:54 a.m. UTC

1 40128U 14050A   20297.68369532 -.00000113  00000-0  00000+0 0  9992
2 40128  50.5466 356.2595 1657483 103.5837 275.3644  1.85519167 41996
UTC
Height (km)
Latitude
Longitude
Inclination
Orbital Period
UTC large
Height (km)
Speed (km/s)
/
Latitude / Longitude
Inclination (degrees)
Orbital Period (minutes)
Azimuth
Elevation
Range (km)
Doppler Factor
iOS Compass Heading
iOS Angle

Next 30 passes for location: Hong Kong

Rise time Rise Azimuth (degrees) Set time Set Azimuth (degrees) Duration Max altitude (degrees)

No matching passes for this satellites